Tracking 19794 objects as of 22-Jul-2019
HD Live streaming from Space Station
objects crossing your sky now

FENGYUN 1C DEB

Track FENGYUN 1C DEB now!
10-day predictions


NORAD ID: 36710
Int'l Code: 1999-025EAG
Perigee: 731.2 km
Apogee: 855.1 km
Inclination: 98.6 °
Period: 100.6 minutes
Semi major axis: 7164 km
RCS: 0.0087 m2 (small)
Launch date: May 10, 1999
Source: People's Republic of China (PRC)
Launch site: Taiyaun Space Center, China (TSC)

Note: This is SATELLITE DEBRIS
aabbcc
Your satellite tracking list
Your tracking list is empty




NASA's NSSDC Master Catalog

Two Line Element Set (TLE):
1 36710U 99025EAG 19198.37310971 +.00000388 +00000-0 +15561-3 0  9991
2 36710 098.6021 255.4268 0086485 315.4878 043.9379 14.31700805313498
Source of the keplerian elements: AFSPC